Погода в Панкратово

Россия / Вологодская область     60°46′51″N   37°57′59″E
темп.,
°C
ветер,
м/с
пор.,
м/с
влажн.,
%
обл.,
%
осадки,
мм/ч
давл.,
гПа
погр.,
м
8 августа, пн
пн800:00+11з2586100 0.0 1020113
03:00+9з22934 0.0 102241
06:00+11зюз2484100 0.0 1022109
09:00+16зюз2360100 0.0 1023525
12:00+19зюз2347100 0.0 10231484
15:00+20зюз2342100 0.0 10231934
18:00+20з124969 0.0 10231500
21:00+13зюз117826 0.0 102312
9 августа, вт
вт900:00+12зсз007995 0.0 102410
03:00+13ссз1173100 0.0 102411
06:00+13ссз268099 0.0 1025225
09:00+14ссз2483100 0.0 1025309
12:00+14ссз238398 0.1 1025328
15:00+18сз235929 0.1 10241115
18:00+16ссв36795 0.6 1024544
21:00+11ссв22930 0.7 102514
10 августа, ср
ср1000:00+9с22951 0.0 102533
03:00+9ссз2497100 0.0 102567
06:00+10ссз249160 0.0 1025125
09:00+16ссз24627 0.0 1024727
12:00+19ссз354652 0.0 10232025
15:00+21ссз353990 0.0 10222414
18:00+17сз385891 0.0 1023405
21:00+12зсз22710 0.0 102318
11 августа, чт
чт1100:00+11з247084 0.0 102369
03:00+10з268315 0.0 1023102
06:00+11зюз2875100 0.0 1023178
09:00+17зюз47549 0.0 1022572
12:00+21зюз473999 0.0 10211782
15:00+22з5738100 0.0 10202019
18:00+20зюз4950100 0.0 10191352
21:00+17юз31263100 0.0 1018486
12 августа, пт
пт1200:00+15зюз41471100 0.0 1017585
03:00+15зюз41372100 0.0 1017530
06:00+16зюз411753 0.0 1018549
09:00+20з48675 0.0 1018823
12:00+24з47450 0.0 10181523
15:00+25зсз474224 0.0 10181979
18:00+23зюз266056 0.0 1018368
21:00+18зсз23850 0.1 101956